View from above orbital plane
|
View from above satellite
|
Ground track
|
The orbit data is extracted from the following two-line orbital elements,
1 39211U 13037D 21101.92162793 .00000118 00000-0 11822-4 0 9992
2 39211 98.0125 248.2516 0121563 279.1053 79.6435 15.05852549424059
Epoch (UTC): | 11 April 2021 22:07:08 |
Eccentricity: | 0.0121563 |
inclination: | 98.0125° |
perigee height: | 464 km |
apogee height: | 633 km |
right ascension of ascending node: | 248.2516° |
argument of perigee: | 279.1053° |
revolutions per day: | 15.05852549 |
mean anomaly at epoch: | 79.6435° |
orbit number at epoch: | 42405 |
The dashed part of the orbit path shows where the satellite is in the earth's shadow,
|
|